x

Puntas Rincon, Pr (ptrp4) Weather Station

6:55am - Thu 28th May 2015 All times are AST. -4 hours from GMT.

  • Wind
    2mph
  • Air Temp 75°f
  • Sea Pressure 1014.5mb
  • Puntas Rincon, Pr
  • Puntas Rincon, Pr

More Historic Weather Station data

Upgrade to MSW Pro to gain access to the past 30 days of data for over 8000 Wavebouys and Weather Stations around the globe.

Join Pro

Comparision Forecast

View Surf forecast
   
Thu 05/28 6:55am 2
mph
1014.5mb 75f
6:50am 2 3 mph 1014.5mb 75f
6:45am 1 3 mph 1014.5mb 75f
6:40am 2 3 mph 1014.4mb 75f
6:35am 2 3 mph 1014.3mb 75f
6:30am 3 5 mph 1014.1mb 75f
6:25am 3 5 mph 1014mb 75f
6:20am 2 3 mph 1013.9mb 75f
6:15am 2 3 mph 1013.8mb 75f
6:10am 2 3 mph 1013.8mb 75f
6:05am 2 5 mph 1013.7mb 75f
6:00am 3 7 mph 1013.7mb 75f
5:55am 3 6 mph 1013.5mb 75f
5:50am 5 7 mph 1013.5mb 75f
5:45am 5 6 mph 1013.5mb 75f
5:40am 3 5 mph 1013.5mb 75f
5:35am 2 5 mph 1013.4mb 75f
5:30am 2 5 mph 1013.4mb 75f
5:25am 2 3 mph 1013.4mb 75f
5:20am 1 2 mph 1013.4mb 75f
5:15am 1 2 mph 1013.4mb 76f
5:10am  -  1 mph 1013.4mb 76f
5:05am  -  2 mph 1013.4mb 76f
5:00am 1 2 mph 1013.4mb 76f
4:55am 2
mph
1013.4mb 76f
4:50am 1 2 mph 1013.4mb 77f
4:45am 3 7 mph 1013.4mb 78f
4:40am 2 5 mph 1013.2mb 78f
4:35am 2 5 mph 1013.2mb 78f
4:30am 3 6 mph 1013.2mb 77f
4:25am 3 6 mph 1013.2mb 77f
4:20am 3 5 mph 1013.3mb 77f
4:15am 5 7 mph 1013.2mb 76f
4:10am 3 5 mph 1013.1mb 76f
4:05am 3 5 mph 1013mb 76f
4:00am 3 5 mph 1013mb 75f
3:55am 5 6 mph 1013.1mb 75f
3:50am 5 7 mph 1013.1mb 75f
3:45am 5 7 mph 1013.2mb 75f
3:40am 5 7 mph 1013.1mb 75f
3:35am 5 6 mph 1013mb 76f
3:30am 5 7 mph 1013.1mb 76f
3:25am 6 9 mph 1013mb 76f
3:20am 6 8 mph 1013mb 76f
3:15am 6 9 mph 1012.9mb 76f
3:10am 6 8 mph 1012.9mb 76f
3:05am 6 8 mph 1012.9mb 76f
3:00am 6 8 mph 1012.9mb 76f
2:55am 6 8 mph 1012.8mb 76f
2:50am 6 7 mph 1012.9mb 76f
2:45am 6 7 mph 1012.9mb 76f
2:40am 6 8 mph 1012.9mb 76f
2:35am 6 8 mph 1012.9mb 76f
2:30am 6 7 mph 1012.9mb 76f
2:25am 6 9 mph 1013mb 76f
2:20am 6 8 mph 1013mb 76f
2:15am 6 7 mph 1013mb 76f
2:10am 6 8 mph 1013.1mb 76f
2:05am 6 8 mph 1013mb 76f
2:00am 6 8 mph 1013.2mb 76f
1:55am 6 9 mph 1013.2mb 76f
1:50am 6 8 mph 1013.3mb 76f
1:45am 6 8 mph 1013.4mb 76f
1:40am 6 8 mph 1013.5mb 75f
1:35am 6 8 mph 1013.5mb 75f
1:30am 6 9 mph 1013.6mb 76f
1:25am 6 8 mph 1013.7mb 75f
1:20am 6 8 mph 1013.8mb 76f
1:15am 6 8 mph 1013.8mb 75f
1:10am 6 8 mph 1013.8mb 75f
1:05am 6 7 mph 1014mb 75f
1:00am 6 7 mph 1014mb 75f
12:55am 6 7 mph 1014.1mb 75f
12:50am 6 8 mph 1014.2mb 75f
12:45am 6 8 mph 1014.2mb 75f
12:40am 7 8 mph 1014.2mb 75f
12:35am 7 9 mph 1014.3mb 75f
12:30am 7 9 mph 1014.3mb 75f
12:25am 7 9 mph 1014.3mb 74f
12:20am 7 9 mph 1014.3mb 74f
12:15am 6 8 mph 1014.4mb 74f
12:10am 6 9 mph 1014.5mb 74f
12:05am 7 10 mph 1014.5mb 74f
12:00am 6 9 mph 1014.5mb 74f
Wed 05/27 11:55pm 6 8 mph 1014.5mb 75f
11:50pm 6 8 mph 1014.6mb 74f
11:45pm 5 8 mph 1014.7mb 75f
11:40pm 5 7 mph 1014.7mb 75f
11:35pm 5 8 mph 1014.8mb 75f
11:30pm 5 8 mph 1014.8mb 75f
11:25pm 6 8 mph 1014.9mb 74f
11:20pm 6 8 mph 1014.9mb 75f
11:15pm 6 9 mph 1015.1mb 75f
11:10pm 7 10 mph 1015.1mb 75f
11:05pm 6 7 mph 1015mb 75f
11:00pm 5 7 mph 1015.1mb 75f
10:55pm 6 8 mph 1015.1mb 75f
10:50pm 6 8 mph 1015.1mb 75f
10:45pm 5 8 mph 1015.1mb 75f
10:40pm 6 7 mph 1015.1mb 75f
10:35pm 6 8 mph 1015.1mb 75f
10:30pm 6 8 mph 1015.1mb 75f
10:25pm 6 8 mph 1015.1mb 75f
10:20pm 6 7 mph 1015.1mb 75f
10:15pm 6 8 mph 1015.1mb 75f
10:10pm 6 8 mph 1015.1mb 75f
10:05pm 6 8 mph 1015.1mb 75f
10:00pm 6 8 mph 1015.1mb 75f
9:55pm 6 8 mph 1015.1mb 75f
9:50pm 5 8 mph 1015.1mb 75f
9:45pm 3 6 mph 1015.1mb 75f
9:40pm 3 6 mph 1015.1mb 76f
9:35pm 3 7 mph 1014.9mb 76f
9:30pm 5 6 mph 1014.9mb 76f
9:25pm 5 7 mph 1014.9mb 76f
9:20pm 5 7 mph 1014.9mb 76f
9:15pm 6 8 mph 1014.9mb 76f
9:10pm 6 8 mph 1014.9mb 76f
9:05pm 5 8 mph 1014.8mb 76f
9:00pm 6 9 mph 1014.7mb 76f
8:55pm 6 10 mph 1014.7mb 76f
8:50pm 7 10 mph 1014.6mb 77f
8:45pm 7 10 mph 1014.6mb 77f
8:40pm 6 9 mph 1014.6mb 77f
8:35pm 6 7 mph 1014.5mb 77f
8:30pm 6 7 mph 1014.5mb 77f
8:25pm 5 8 mph 1014.6mb 78f
8:20pm 5 7 mph 1014.5mb 78f
8:15pm 5 8 mph 1014.5mb 78f
8:10pm 5 7 mph 1014.5mb 78f
8:05pm 6 9 mph 1014.5mb 78f
8:00pm 6 9 mph 1014.5mb 78f
7:55pm 5 7 mph 1014.4mb 78f
7:50pm 5 9 mph 1014.5mb 78f
7:45pm 5 6 mph 1014.4mb 78f
7:40pm 5 8 mph 1014.3mb 78f
7:35pm 6 9 mph 1014.2mb 79f
7:30pm 7 11 mph 1014.1mb 79f
7:25pm 6 9 mph 1014.2mb 79f
7:20pm 5 9 mph 1014.1mb 80f
7:15pm 6 9 mph 1014.1mb 80f
7:10pm 3 6 mph 1014mb 80f
7:05pm 5 8 mph 1014mb 80f
7:00pm 5 8 mph 1013.9mb 80f
6:25pm 6 14 mph 1013.6mb 83f
6:20pm 5 13 mph 1013.6mb 83f
6:15pm 8 14 mph 1013.5mb 82f
6:10pm 7 11 mph 1013.5mb 82f
6:05pm 9 14 mph 1013.5mb 82f
6:00pm 8 17 mph 1013.5mb 82f
5:45pm 9 16 mph 1013.4mb 82f
5:40pm 11 18 mph 1013.4mb 82f
5:35pm 11 20 mph 1013.3mb 82f
5:30pm 11 18 mph 1013.3mb 82f
5:25pm 13 20 mph 1013.3mb 82f
5:20pm 11 17 mph 1013.3mb 82f
5:15pm 10 17 mph 1013.3mb 82f
5:10pm 11 18 mph 1013.2mb 82f
5:05pm 11 18 mph 1013.2mb 82f
5:00pm 10 17 mph 1013.1mb 82f
4:55pm 11 18 mph 1013mb 82f
4:50pm 11 17 mph 1013mb 82f
4:45pm 10 17 mph 1013mb 83f
4:40pm 10 18 mph 1013mb 83f
4:35pm 11 20 mph 1013mb 82f
4:30pm 11 18 mph 1013mb 83f
4:25pm 11 18 mph 1013mb 83f
4:20pm 10 17 mph 1013mb 83f
4:15pm 9 17 mph 1013.1mb 83f
4:10pm 10 17 mph 1013.2mb 83f
4:05pm 11 17 mph 1013.2mb 83f
4:00pm 11 17 mph 1013.2mb 83f
3:55pm 10 18 mph 1013.2mb 83f
3:50pm 10 17 mph 1013.2mb 83f
3:45pm 8 14 mph 1013.3mb 84f
3:40pm 9 16 mph 1013.4mb 83f
3:35pm 10 17 mph 1013.3mb 83f
3:30pm 11 17 mph 1013.3mb 82f
3:25pm 11 17 mph 1013.3mb 83f
3:20pm 10 16 mph 1013.5mb 84f
3:15pm 9 15 mph 1013.5mb 84f
3:10pm 10 18 mph 1013.5mb 84f
3:05pm 9 16 mph 1013.5mb 84f
3:00pm 9 16 mph 1013.6mb 83f
2:55pm 11 17 mph 1013.6mb 83f
2:50pm 10 15 mph 1013.6mb 84f
2:45pm 9 16 mph 1013.6mb 84f
2:40pm 9 15 mph 1013.6mb 84f
2:35pm 8 14 mph 1013.7mb 84f
2:30pm 10 16 mph 1013.8mb 84f
2:25pm 7 15 mph 1013.8mb 84f
2:20pm 9 15 mph 1013.9mb 83f
2:15pm 8 14 mph 1014mb 82f
2:10pm 8 14 mph 1014.1mb 83f
2:05pm 8 14 mph 1014.1mb 84f
2:00pm 7 14 mph 1014.3mb 85f
1:55pm 9 14 mph 1014.3mb 84f
1:50pm 8 15 mph 1014.3mb 84f
1:45pm 9 15 mph 1014.3mb 83f
1:40pm 8 15 mph 1014.3mb 83f
1:35pm 8 14 mph 1014.4mb 83f
1:30pm 6 11 mph 1014.5mb 83f
1:25pm 7 11 mph 1014.5mb 83f
1:20pm 9 15 mph 1014.5mb 83f
1:15pm 8 14 mph 1014.5mb 82f
1:10pm 8 15 mph 1014.5mb 82f
1:05pm 7 13 mph 1014.6mb 82f
1:00pm 7 13 mph 1014.6mb 83f
12:55pm 9 16 mph 1014.7mb 82f
12:50pm 8 14 mph 1014.8mb 83f
12:45pm 9 15 mph 1014.8mb 83f
12:40pm 8 15 mph 1014.8mb 83f
12:35pm 8 15 mph 1014.9mb 84f
12:30pm 8 16 mph 1015mb 85f
12:25pm 8 16 mph 1015.1mb 84f
12:20pm 10 15 mph 1015.1mb 84f
12:15pm 6 15 mph 1015.1mb 85f
12:10pm 8 15 mph 1015.1mb 84f
12:05pm 9 17 mph 1015.1mb 84f
12:00pm 8 15 mph 1015.1mb 85f
11:55am 9 14 mph 1015.2mb 84f
11:50am 8 14 mph 1015.3mb 84f
11:45am 7 13 mph 1015.4mb 84f
11:40am 8 15 mph 1015.5mb 84f
11:35am 8 14 mph 1015.5mb 84f
11:30am 9 14 mph 1015.5mb 85f
11:25am 7 13 mph 1015.5mb 85f
11:20am 6 13 mph 1015.5mb 85f
11:15am 3 9 mph 1015.5mb 85f
11:10am 6 10 mph 1015.5mb 84f
11:05am 6 10 mph 1015.5mb 85f
11:00am 5 7 mph 1015.5mb 84f
10:55am 3 8 mph 1015.5mb 84f
10:50am 2 7 mph 1015.5mb 85f
10:45am 5 8 mph 1015.6mb 84f
10:40am 2 7 mph 1015.6mb 85f
10:35am 2 7 mph 1015.7mb 84f
10:30am 2 7 mph 1015.7mb 84f
10:25am 5 8 mph 1015.7mb 83f
10:20am 5 9 mph 1015.7mb 84f
10:15am 3 8 mph 1015.8mb 84f
10:10am 6 9 mph 1015.8mb 84f
10:05am 5 9 mph 1015.8mb 85f
10:00am 5 8 mph 1015.8mb 86f
9:55am 2 5 mph 1015.8mb 87f
9:50am 2 6 mph 1015.8mb 85f
9:45am 5 8 mph 1015.8mb 86f
9:40am 3 7 mph 1015.7mb 86f
9:35am 2 6 mph 1015.7mb 85f
9:30am 3 8 mph 1015.7mb 85f
9:25am 3 8 mph 1015.7mb 84f
9:20am 5 9 mph 1015.6mb 85f
9:15am 3 6 mph 1015.5mb 84f
9:10am 5 8 mph 1015.5mb 83f
9:05am 7 11 mph 1015.5mb 83f
9:00am 6 8 mph 1015.5mb 82f
8:55am 6 10 mph 1015.5mb 82f
8:50am 6 11 mph 1015.5mb 83f
8:45am 5 8 mph 1015.5mb 84f
8:40am 5 9 mph 1015.5mb 83f
8:35am 3 8 mph 1015.5mb 83f
8:30am 3 7 mph 1015.4mb 83f
8:25am 5 9 mph 1015.4mb 83f
8:20am 5 8 mph 1015.4mb 82f
8:15am 5 9 mph 1015.3mb 81f
8:10am 3 7 mph 1015.3mb 82f
8:05am 3 6 mph 1015.2mb 81f
8:00am 5 8 mph 1015.3mb 80f
7:55am 6 9 mph 1015.4mb 80f
7:50am 3 6 mph 1015.4mb 80f
7:45am 5 7 mph 1015.4mb 79f
7:40am 5 7 mph 1015.3mb 78f
7:35am 2 6 mph 1015.2mb 79f
7:30am 3 6 mph 1015.2mb 78f
7:25am 3 7 mph 1015.2mb 79f
7:20am 3 7 mph 1015.1mb 79f
7:15am 5 7 mph 1015.1mb 78f
7:10am 5 7 mph 1015.1mb 77f
7:05am 5 7 mph 1015.1mb 77f
7:00am 3 6 mph 1014.9mb 76f
6:55am 3 7 mph 1014.9mb 75f
6:50am 5 7 mph 1014.9mb 75f
6:45am 3 6 mph 1014.8mb 75f
6:40am 5 8 mph 1014.7mb 75f
6:35am 5 8 mph 1014.6mb 75f
6:30am 5 7 mph 1014.5mb 75f
6:25am 6 9 mph 1014.5mb 75f
6:20am 7 9 mph 1014.5mb 74f
6:15am 6 8 mph 1014.5mb 74f
6:10am 6 8 mph 1014.4mb 74f
6:05am 5 8 mph 1014.3mb 74f
6:00am 5 7 mph 1014.3mb 74f
5:55am 5 6 mph 1014.2mb 74f
5:50am 5 6 mph 1014.1mb 74f
5:45am 5 6 mph 1014mb 74f
5:40am 5 7 mph 1014mb 74f
5:35am 6 7 mph 1014mb 74f
5:30am 6 9 mph 1014.1mb 74f
5:25am 6 8 mph 1014.2mb 74f
5:20am 6 7 mph 1014.2mb 74f
5:15am 6 8 mph 1014.1mb 74f
5:10am 6 7 mph 1014.2mb 75f
5:05am 6 8 mph 1014.2mb 74f
5:00am 6 7 mph 1014.2mb 75f
4:55am 5 6 mph 1014.2mb 75f
4:50am 6 8 mph 1014.2mb 75f
4:45am 6 7 mph 1014.2mb 75f
4:40am 5 7 mph 1014.3mb 75f
4:35am 5 7 mph 1014.2mb 75f
4:30am 6 8 mph 1014.2mb 75f
4:25am 6 8 mph 1014.2mb 75f
4:20am 6 8 mph 1014.2mb 75f
4:15am 6 8 mph 1014.1mb 75f
4:10am 6 8 mph 1014.1mb 75f
4:05am 6 8 mph 1014mb 75f
4:00am 7 9 mph 1014mb 75f
3:55am 6 8 mph 1014mb 75f
3:50am 6 8 mph 1014.1mb 75f
3:45am 6 8 mph 1014.1mb 75f
3:40am 5 8 mph 1014mb 75f
3:35am 6 7 mph 1013.9mb 74f
3:30am 5 7 mph 1013.9mb 74f
3:25am 5 7 mph 1013.8mb 74f
3:20am 6 7 mph 1013.8mb 74f
3:15am 5 7 mph 1013.9mb 75f
3:10am 6 8 mph 1014mb 75f
3:05am 6 7 mph 1014mb 75f
3:00am 6 8 mph 1014mb 75f
2:55am 6 8 mph 1014mb 75f
2:50am 6 8 mph 1014mb 75f
2:45am 5 7 mph 1014.1mb 75f
2:40am 3 7 mph 1014.2mb 75f
2:35am 5 7 mph 1014.2mb 75f
2:30am 5 7 mph 1014.3mb 75f
2:25am 5 7 mph 1014.3mb 75f
2:20am 5 6 mph 1014.4mb 75f
2:15am 5 6 mph 1014.5mb 75f
2:10am 5 6 mph 1014.5mb 76f
2:05am 5 7 mph 1014.5mb 76f
2:00am 5 7 mph 1014.5mb 76f
1:55am 5 7 mph 1014.5mb 76f
1:50am 5 6 mph 1014.5mb 76f
1:45am 5 8 mph 1014.6mb 76f
1:40am 6 8 mph 1014.7mb 76f
1:35am 5 7 mph 1014.8mb 76f
1:30am 5 7 mph 1014.8mb 76f
1:25am 5 7 mph 1014.8mb 76f
1:20am 6 7 mph 1014.9mb 76f
1:15am 5 7 mph 1015.1mb 76f
1:10am 5 6 mph 1015.1mb 76f
1:05am 5 7 mph 1015.1mb 76f
1:00am 6 8 mph 1015.2mb 76f
12:55am 6 8 mph 1015.2mb 76f
12:50am 6 7 mph 1015.4mb 76f
12:45am 5 7 mph 1015.4mb 76f
12:40am 5 7 mph 1015.4mb 76f
12:35am 5 7 mph 1015.5mb 76f
12:30am 6 9 mph 1015.5mb 77f
12:25am 6 8 mph 1015.5mb 77f
12:20am 6 8 mph 1015.7mb 77f
12:15am 5 7 mph 1015.7mb 77f
12:10am 6 8 mph 1015.8mb 77f
12:05am 6 8 mph 1015.9mb 77f
12:00am 6 9 mph 1015.9mb 77f
Tue 05/26 11:55pm 6 9 mph 1016mb 77f
11:50pm 5 8 mph 1016.2mb 77f
11:45pm 5 7 mph 1016.2mb 77f
11:40pm 6 8 mph 1016.2mb 77f
11:35pm 6 8 mph 1016.2mb 77f
11:30pm 6 8 mph 1016.2mb 77f
11:25pm 6 7 mph 1016.2mb 77f
11:20pm 5 7 mph 1016.2mb 77f
11:15pm 6 8 mph 1016.3mb 77f
11:10pm 6 8 mph 1016.3mb 77f
11:05pm 6 8 mph 1016.3mb 77f
11:00pm 6 9 mph 1016.5mb 78f
10:55pm 6 8 mph 1016.5mb 78f
10:50pm 5 6 mph 1016.5mb 78f
10:45pm 3 6 mph 1016.5mb 78f
10:40pm 2 5 mph 1016.5mb 78f
10:35pm 3 6 mph 1016.5mb 78f
10:30pm 3 6 mph 1016.5mb 78f
10:25pm 3 6 mph 1016.5mb 78f
10:20pm 5 6 mph 1016.5mb 78f
10:15pm 3 6 mph 1016.5mb 78f
10:10pm 5 6 mph 1016.5mb 78f
10:05pm 3 6 mph 1016.5mb 78f
10:00pm 5 6 mph 1016.4mb 78f
9:55pm 5 7 mph 1016.4mb 78f
9:50pm 3 8 mph 1016.4mb 78f
9:45pm 3 7 mph 1016.3mb 78f
9:40pm 3 7 mph 1016.3mb 78f
9:35pm 3 7 mph 1016.3mb 78f
9:30pm 3 6 mph 1016.3mb 78f
9:25pm 3 7 mph 1016.3mb 79f
9:20pm 5 7 mph 1016.3mb 79f
9:15pm 5 9 mph 1016.2mb 78f
9:10pm 5 8 mph 1016.2mb 78f
9:05pm 5 8 mph 1016.2mb 79f
9:00pm 5 8 mph 1016.2mb 79f
8:55pm 6 8 mph 1016.1mb 79f
8:50pm 6 11 mph 1016.2mb 79f
8:45pm 6 11 mph 1016.2mb 79f
8:40pm 6 10 mph 1016.1mb 79f
8:35pm 5 10 mph 1016.2mb 79f
8:30pm 7 11 mph 1016.1mb 79f
8:25pm 7 11 mph 1016mb 79f
8:20pm 6 13 mph 1015.8mb 79f
8:15pm 6 9 mph 1015.7mb 79f
8:10pm 6 10 mph 1015.7mb 79f
8:05pm 7 13 mph 1015.6mb 79f
8:00pm 7 11 mph 1015.5mb 79f
7:55pm 7 14 mph 1015.5mb 79f
7:50pm 8 14 mph 1015.5mb 79f
7:45pm 7 11 mph 1015.5mb 79f
7:40pm 8 13 mph 1015.5mb 80f
7:30pm 8 15 mph 1015.5mb 80f
7:25pm 6 10 mph 1015.5mb 80f
7:20pm 6 10 mph 1015.5mb 80f
7:15pm 7 14 mph 1015.5mb 80f
7:10pm 8 16 mph 1015.5mb 80f
7:05pm 7 15 mph 1015.5mb 80f
7:00pm 7 13 mph 1015.5mb 80f
6:55pm 7 13 mph 1015.4mb 80f
6:50pm 6 13 mph 1015.4mb 80f
6:45pm 7 10 mph 1015.2mb 80f
6:40pm 8 15 mph 1015.2mb 81f
6:35pm 9 15 mph 1015.2mb 81f
6:30pm 7 13 mph 1015.2mb 81f
6:25pm 7 13 mph 1015.1mb 82f
6:20pm 8 14 mph 1015.1mb 82f
6:15pm 9 15 mph 1015.1mb 82f
6:10pm 10 16 mph 1015.1mb 82f
6:05pm 8 16 mph 1015.1mb 82f
6:00pm 10 16 mph 1015.1mb 82f
5:55pm 10 17 mph 1015mb 82f
5:50pm 11 17 mph 1014.9mb 82f
5:45pm 9 17 mph 1014.9mb 82f
5:40pm 9 18 mph 1014.9mb 82f
5:35pm 11 21 mph 1014.9mb 82f
5:30pm 10 17 mph 1014.9mb 83f
5:25pm 10 17 mph 1014.9mb 83f
5:20pm 11 21 mph 1014.9mb 83f
5:15pm 11 17 mph 1014.8mb 83f
5:10pm 13 20 mph 1014.8mb 83f
5:05pm 10 17 mph 1014.8mb 83f
5:00pm 11 18 mph 1014.7mb 83f
4:55pm 11 21 mph 1014.7mb 83f
4:50pm 10 17 mph 1014.8mb 83f
4:45pm 9 20 mph 1014.7mb 84f
4:40pm 11 21 mph 1014.7mb 83f
4:35pm 14 22 mph 1014.8mb 83f
4:30pm 14 22 mph 1014.8mb 83f
4:25pm 14 21 mph 1014.7mb 82f
4:20pm 14 22 mph 1014.6mb 83f
4:15pm 13 18 mph 1014.7mb 83f
4:10pm 13 20 mph 1014.8mb 83f
4:05pm 14 20 mph 1014.8mb 83f
4:00pm 13 20 mph 1014.8mb 83f
3:55pm 15 22 mph 1014.9mb 83f
3:50pm 15 22 mph 1014.9mb 83f
3:45pm 15 22 mph 1014.9mb 83f
3:40pm 14 21 mph 1014.9mb 83f
3:35pm 11 18 mph 1014.9mb 83f
3:30pm 13 22 mph 1014.9mb 83f
3:25pm 13 22 mph 1014.9mb 83f
3:20pm 13 22 mph 1014.8mb 83f
3:15pm 14 22 mph 1014.9mb 83f
3:10pm 13 22 mph 1014.9mb 83f
3:05pm 11 21 mph 1014.9mb 83f
3:00pm 11 22 mph 1014.9mb 83f
2:55pm 13 21 mph 1014.9mb 83f
2:50pm 13 21 mph 1014.9mb 83f
2:45pm 13 21 mph 1015mb 83f
2:40pm 11 18 mph 1015.1mb 83f
2:35pm 13 21 mph 1015.1mb 83f
2:30pm 13 20 mph 1015.1mb 83f
2:25pm 11 20 mph 1015.1mb 83f
2:20pm 13 20 mph 1015.1mb 83f
2:15pm 13 20 mph 1015.2mb 83f
2:10pm 10 21 mph 1015.2mb 83f
2:05pm 13 21 mph 1015.3mb 84f
2:00pm 11 20 mph 1015.4mb 84f
1:55pm 11 22 mph 1015.4mb 84f
1:50pm 11 22 mph 1015.5mb 84f
1:40pm 13 20 mph 1015.5mb 84f
1:35pm 13 20 mph 1015.6mb 83f
1:30pm 11 21 mph 1015.7mb 84f
1:25pm 14 22 mph 1015.8mb 83f
1:20pm 13 23 mph 1015.9mb 84f
1:15pm 13 22 mph 1016mb 83f
1:10pm 13 22 mph 1015.9mb 83f
1:05pm 13 21 mph 1016mb 84f
1:00pm 11 21 mph 1016.1mb 84f
12:55pm 14 21 mph 1016.1mb 83f
12:50pm 13 21 mph 1016.3mb 83f
12:45pm 13 23 mph 1016.3mb 83f
12:40pm 15 23 mph 1016.4mb 83f
12:35pm 11 21 mph 1016.4mb 84f
12:30pm 11 20 mph 1016.5mb 84f
12:25pm 13 24 mph 1016.6mb 83f
12:20pm 13 23 mph 1016.6mb 83f
12:15pm 13 23 mph 1016.6mb 84f
12:10pm 13 21 mph 1016.8mb 84f
12:05pm 11 20 mph 1016.8mb 84f
12:00pm 10 20 mph 1016.8mb 84f
11:55am 9 17 mph 1016.9mb 83f
11:50am 9 15 mph 1017mb 82f
11:25am 6 15 mph 1017.3mb 82f
11:20am 8 17 mph 1017.3mb 82f
11:15am 7 13 mph 1017.5mb 82f
11:10am 7 14 mph 1017.5mb 82f
11:05am 5 8 mph 1017.6mb 84f
11:00am 2 6 mph 1017.7mb 83f
10:55am 2 3 mph 1017.7mb 83f
10:50am 5 7 mph 1017.7mb 83f
10:45am 3 6 mph 1017.7mb 83f
10:40am 3 7 mph 1017.7mb 84f
10:35am 2 6 mph 1017.7mb 83f
10:30am 2 5 mph 1017.8mb 82f
10:25am 3 6 mph 1017.8mb 82f
10:20am 3 6 mph 1017.8mb 82f
10:15am 3 6 mph 1017.9mb 83f
10:10am 3 8 mph 1017.9mb 84f
10:05am 5 8 mph 1017.8mb 85f
10:00am 5 9 mph 1017.8mb 84f
9:55am 6 8 mph 1017.8mb 85f
9:50am 5 8 mph 1017.8mb 85f
9:45am 6 10 mph 1017.8mb 85f
9:40am 6 11 mph 1017.7mb 85f
9:35am 6 10 mph 1017.7mb 84f
9:30am 6 10 mph 1017.7mb 85f
9:25am 5 10 mph 1017.7mb 84f
9:20am 6 11 mph 1017.7mb 84f
9:15am 5 9 mph 1017.7mb 84f
9:10am 5 10 mph 1017.7mb 84f
9:05am 6 11 mph 1017.7mb 83f
9:00am 5 9 mph 1017.7mb 83f
8:55am 7 11 mph 1017.7mb 83f
8:50am 6 10 mph 1017.5mb 83f
8:45am 6 9 mph 1017.5mb 82f
8:40am 5 10 mph 1017.4mb 82f
8:35am 6 11 mph 1017.4mb 83f
8:30am 3 7 mph 1017.4mb 82f
8:25am 5 9 mph 1017.4mb 82f
8:20am 5 9 mph 1017.3mb 81f
8:15am 6 11 mph 1017.2mb 80f
8:10am 5 9 mph 1017.2mb 81f
8:05am 5 10 mph 1017.2mb 80f
8:00am 6 11 mph 1017.2mb 80f
7:55am 6 9 mph 1017.2mb 79f
7:50am 5 9 mph 1017.2mb 79f
7:45am 5 8 mph 1017.3mb 78f
7:40am 5 9 mph 1017.2mb 78f
7:35am 5 8 mph 1017.3mb 78f
7:30am 5 9 mph 1017.1mb 77f
7:25am 5 8 mph 1017.1mb 77f
7:20am 6 9 mph 1017.1mb 77f
7:15am 3 8 mph 1017.1mb 78f
7:10am 5 8 mph 1017.1mb 77f
7:05am 3 7 mph 1017.1mb 77f
7:00am 3 7 mph 1017mb 76f
6:55am 3 7 mph 1016.8mb 76f
6:50am 2 6 mph 1016.6mb 76f
6:45am 3 6 mph 1016.6mb 76f
6:40am 5 7 mph 1016.6mb 76f
6:35am 5 7 mph 1016.5mb 76f
6:30am 5 7 mph 1016.4mb 75f
6:25am 5 7 mph 1016.5mb 75f
6:20am 3 6 mph 1016.5mb 75f
6:15am 5 6 mph 1016.5mb 75f
6:10am 5 7 mph 1016.5mb 75f
6:05am 6 8 mph 1016.5mb 75f
6:00am 3 6 mph 1016.5mb 74f
5:55am 3 7 mph 1016.5mb 75f
5:50am 5 6 mph 1016.5mb 74f
5:45am 5 6 mph 1016.5mb 75f
5:40am  -  mph 1016.5mb -
5:35am 6 7 mph 1016.5mb 75f
5:30am 5 7 mph 1016.4mb 75f
5:25am 6 9 mph 1016.4mb 75f
5:20am 7 9 mph 1016.5mb 75f
5:15am 7 9 mph 1016.6mb 75f
5:10am 7 9 mph 1016.5mb 75f
5:05am 6 8 mph 1016.6mb 75f
5:00am 6 8 mph 1016.5mb 75f
4:55am 5 8 mph 1016.5mb 75f
4:50am 5 8 mph 1016.5mb 75f
4:45am 5 7 mph 1016.3mb 74f
4:40am 5 6 mph 1016.3mb 74f
4:35am 5 6 mph 1016.2mb 74f
4:30am 6 7 mph 1016.2mb 75f
4:25am 6 7 mph 1016.2mb 75f
4:20am 6 8 mph 1016.1mb 75f
4:15am 6 7 mph 1016mb 75f
4:10am 5 7 mph 1016.1mb 74f
4:05am 3 7 mph 1016.1mb 74f
4:00am 5 8 mph 1016mb 74f
3:55am 5 7 mph 1015.9mb 74f
3:50am 3 6 mph 1015.9mb 74f
3:45am 3 5 mph 1016mb 74f
3:40am 3 6 mph 1016mb 74f
3:35am 3 5 mph 1016mb 74f
3:30am 2 5 mph 1016mb 74f
3:25am 2 5 mph 1016mb 75f
3:20am 3 6 mph 1016mb 75f
3:15am 3 5 mph 1016mb 75f
3:10am 3 6 mph 1016.1mb 75f
3:05am 3 6 mph 1016.1mb 75f
3:00am 3 6 mph 1016.1mb 75f
2:55am 5 7 mph 1016mb 75f
2:50am 5 7 mph 1016mb 76f
2:45am 5 7 mph 1016mb 75f
2:40am 3 6 mph 1016.1mb 75f
2:35am 5 7 mph 1016.2mb 75f
2:30am 5 7 mph 1016.2mb 76f
2:25am 5 7 mph 1016.2mb 76f
2:20am 6 7 mph 1016.2mb 76f
2:15am 5 7 mph 1016.2mb 76f
2:10am 5 6 mph 1016.2mb 76f
2:05am 5 6 mph 1016.3mb 76f
2:00am 5 7 mph 1016.2mb 76f
1:55am 5 7 mph 1016.4mb 76f
1:50am 5 7 mph 1016.5mb 76f
1:45am 5 6 mph 1016.6mb 76f
1:40am 3 5 mph 1016.6mb 76f
1:35am 5 6 mph 1016.7mb 76f
1:30am 5 6 mph 1016.8mb 76f
1:25am 6 7 mph 1016.8mb 76f
1:20am 6 7 mph 1016.8mb 76f
1:15am 5 7 mph 1016.8mb 76f
1:10am 5 6 mph 1016.8mb 76f
1:05am 5 6 mph 1016.8mb 76f
1:00am 5 6 mph 1016.9mb 76f
12:55am 5 6 mph 1017mb 76f
12:50am 5 7 mph 1017.1mb 76f
12:45am 3 6 mph 1016.9mb 76f
12:40am 5 6 mph 1017mb 76f
12:35am 5 6 mph 1017.2mb 76f
12:30am 5 6 mph 1017.3mb 76f
12:25am 3 6 mph 1017.3mb 76f
12:20am 3 6 mph 1017.4mb 76f
12:15am 3 6 mph 1017.4mb 76f
12:10am 5 6 mph 1017.6mb 76f
12:05am 5
mph
1017.6mb 76f
12:00am 5 6 mph 1017.6mb 76f
Mon 05/25 11:55pm 3 6 mph 1017.6mb 76f
11:50pm 5 6 mph 1017.6mb 76f
11:45pm 6 8 mph 1017.6mb 76f
11:40pm 6 8 mph 1017.6mb 76f
11:35pm 6 9 mph 1017.6mb 76f
11:30pm 6 8 mph 1017.6mb 76f
11:25pm 6 8 mph 1017.7mb 76f
11:20pm 6 8 mph 1017.7mb 76f
11:15pm 6 9 mph 1017.7mb 76f
11:10pm 6 9 mph 1017.7mb 76f
11:05pm 6 10 mph 1017.7mb 76f
11:00pm 6 10 mph 1017.9mb 76f
10:55pm 5 9 mph 1017.9mb 76f
10:50pm 5 8 mph 1017.9mb 76f
10:45pm 6 11 mph 1018mb 76f
10:40pm 6 9 mph 1018mb 76f
10:35pm 6 8 mph 1017.9mb 76f
10:30pm 6 8 mph 1018mb 76f
10:25pm 6 8 mph 1017.9mb 76f
10:20pm 6 8 mph 1017.9mb 76f
10:15pm 6 8 mph 1017.9mb 76f
10:10pm 7 9 mph 1017.9mb 76f
10:05pm 6 8 mph 1017.9mb 76f
10:00pm 6 10 mph 1017.9mb 76f
9:55pm 6 9 mph 1017.9mb 76f
9:50pm 5 8 mph 1017.8mb 76f
9:45pm 5 9 mph 1017.7mb 76f
9:40pm 5 9 mph 1017.7mb 76f
9:35pm 6 8 mph 1017.7mb 76f
9:30pm 5 8 mph 1017.7mb 76f
9:25pm 5 8 mph 1017.7mb 76f
9:20pm 5 8 mph 1017.7mb 76f
9:15pm 5 8 mph 1017.7mb 76f
9:10pm 6 9 mph 1017.7mb 76f
9:05pm 7 8 mph 1017.7mb 76f
9:00pm 7 8 mph 1017.7mb 75f
8:55pm 6 8 mph 1017.7mb 75f
8:50pm 6 8 mph 1017.7mb 75f
8:45pm 5 7 mph 1017.7mb 75f
8:40pm 5 8 mph 1017.7mb 75f
8:35pm 6 8 mph 1017.7mb 75f
8:30pm 6 8 mph 1017.7mb 75f
8:25pm 6 8 mph 1017.6mb 75f
8:20pm 7 9 mph 1017.5mb 76f
8:15pm 7 9 mph 1017.4mb 76f
8:10pm 7 9 mph 1017.3mb 75f
8:05pm 6 8 mph 1017.3mb 75f
8:00pm 5 7 mph 1017.4mb 75f
7:55pm 3 6 mph 1017.3mb 75f
7:50pm 3
mph
1017.3mb 74f
7:45pm 2 5 mph 1017.3mb 74f
7:40pm 3 5 mph 1017.4mb 75f
7:30pm  -  1 mph 1017.4mb 75f
7:25pm  -  2 mph 1017.3mb 75f
7:20pm 1 2 mph 1017.3mb 75f
7:15pm 2 5 mph 1017.2mb 75f
7:10pm 2 5 mph 1017.1mb 75f
7:05pm 1 3 mph 1017.1mb 75f
7:00pm  -  2 mph 1017mb 75f
6:55pm  -  2 mph 1017.1mb 75f
6:50pm  -  3 mph 1017.1mb 75f
6:45pm 1 3 mph 1017.2mb 75f
6:40pm 5 6 mph 1017.3mb 75f
6:35pm 6 10 mph 1017.3mb 74f
6:30pm 5 7 mph 1017.3mb 74f
6:25pm 2 5 mph 1017.3mb 75f
6:20pm  -  2 mph 1017.3mb 75f
6:15pm 1 3 mph 1017.2mb 75f
6:10pm 2 7 mph 1017.1mb 75f
6:05pm 5 7 mph 1017.1mb 75f
6:00pm 3 7 mph 1017.1mb 76f
5:55pm 5 9 mph 1017mb 76f
5:50pm 7 11 mph 1016.9mb 77f
5:45pm 5 8 mph 1016.8mb 77f
5:40pm 6 11 mph 1016.7mb 77f
5:35pm 6 10 mph 1016.6mb 77f
5:30pm 6 10 mph 1016.6mb 77f
5:25pm 7 13 mph 1016.5mb 78f
5:20pm 6 10 mph 1016.5mb 78f
5:15pm 5 11 mph 1016.4mb 78f
5:10pm 5 9 mph 1016.5mb 78f
5:05pm 6 10 mph 1016.4mb 78f
5:00pm 6 10 mph 1016.3mb 79f
4:55pm 6 10 mph 1016.3mb 78f
4:50pm 6 10 mph 1016.3mb 79f
4:45pm 6 13 mph 1016.3mb 80f
4:40pm 5 8 mph 1016.3mb 81f
4:35pm 3 7 mph 1016.3mb 81f
4:30pm 5 9 mph 1016.3mb 81f
4:25pm 3 6 mph 1016.3mb 81f
4:20pm 3 6 mph 1016.2mb 81f
4:15pm 6 9 mph 1016.1mb 80f
4:10pm 6 10 mph 1016.2mb 80f
4:05pm 6 9 mph 1016.1mb 79f
4:00pm 6 10 mph 1016.2mb 79f
3:55pm 5 9 mph 1016.2mb 79f
3:50pm 8 11 mph 1016.1mb 79f
3:45pm 6 8 mph 1016.1mb 78f
3:40pm 8 11 mph 1016.3mb 79f
3:35pm 8 14 mph 1016.3mb 82f
3:30pm 5 8 mph 1016.3mb 84f
3:25pm 3 8 mph 1016.3mb 84f
3:20pm 7 10 mph 1016.3mb 84f
3:15pm 8 14 mph 1016.3mb 83f
3:10pm 10 18 mph 1016.1mb 85f
3:05pm 13 21 mph 1016.1mb 85f
3:00pm 13 22 mph 1016.1mb 86f
2:55pm 13 21 mph 1016.1mb 86f
2:50pm 13 22 mph 1016.1mb 86f
2:45pm 11 20 mph 1016.1mb 87f
2:40pm 13 23 mph 1016.1mb 86f
2:35pm 14 22 mph 1016.1mb 86f
2:30pm 11 23 mph 1016.1mb 86f
2:25pm 15 22 mph 1016.1mb 86f
2:20pm 14 23 mph 1016.2mb 86f
2:15pm 15 23 mph 1016.1mb 86f
2:10pm 13 22 mph 1016.1mb 86f
2:05pm 14 22 mph 1016.2mb 86f
2:00pm 13 23 mph 1016.3mb 86f
1:55pm 11 20 mph 1016.4mb 87f
1:50pm 11 22 mph 1016.5mb 86f
1:45pm 13 22 mph 1016.5mb 86f
1:40pm 11 21 mph 1016.6mb 87f
1:35pm 11 21 mph 1016.6mb 87f
1:30pm 11 20 mph 1016.6mb 86f
1:25pm 11 23 mph 1016.6mb 87f
1:20pm 10 18 mph 1016.7mb 86f
1:15pm 10 18 mph 1016.8mb 86f
1:10pm 11 20 mph 1016.8mb 86f
1:05pm 10 17 mph 1016.9mb 86f
1:00pm 10 17 mph 1017mb 86f
12:55pm 10 17 mph 1017.1mb 86f
12:50pm 10 21 mph 1017.1mb 85f
12:45pm 13 20 mph 1017.2mb 85f
12:40pm 14 23 mph 1017.2mb 84f
12:35pm 16 25 mph 1017.2mb 83f
12:30pm 14 22 mph 1017.2mb 84f
12:25pm 13 22 mph 1017.3mb 85f
12:20pm 13 20 mph 1017.4mb 85f
12:15pm 13 22 mph 1017.4mb 84f
12:10pm 15 24 mph 1017.5mb 84f
12:05pm 14 23 mph 1017.5mb 83f
12:00pm 15 22 mph 1017.6mb 84f
11:55am 13 22 mph 1017.7mb 83f
11:50am 14 23 mph 1017.7mb 84f
11:45am 10 18 mph 1017.7mb 86f
11:40am 10 18 mph 1017.7mb 85f
11:35am 9 18 mph 1017.7mb 86f
11:30am 8 17 mph 1017.8mb 88f
11:25am 5 10 mph 1017.9mb 89f
11:20am 3 9 mph 1017.8mb 90f
11:15am 6 10 mph 1017.8mb 89f
11:10am 7 11 mph 1017.8mb 88f
11:05am 6 10 mph 1017.9mb 88f
11:00am 9 15 mph 1018mb 88f
10:55am 7 14 mph 1018mb 89f
10:50am 5 8 mph 1018.1mb 89f
10:45am 7 10 mph 1018.1mb 88f
10:40am 7 11 mph 1018.1mb 87f
10:35am 7 13 mph 1018mb 86f
10:30am 9 14 mph 1018.1mb 86f
10:25am 6 13 mph 1018.1mb 87f
10:20am 5 10 mph 1018.2mb 87f
10:15am 6 11 mph 1018.3mb 87f
10:10am 7 13 mph 1018.3mb 86f
10:05am 7 13 mph 1018.3mb 86f
10:00am 7 10 mph 1018.3mb 86f
9:55am 7 13 mph 1018.3mb 86f
9:50am 7 11 mph 1018.3mb 86f
9:45am 5 13 mph 1018.2mb 86f
9:40am 7 14 mph 1018.2mb 86f
9:35am 7 15 mph 1018.1mb 85f
9:30am 6 13 mph 1018.1mb 85f
9:25am 6 14 mph 1018.1mb 85f
9:20am 5 8 mph 1018.1mb 85f
9:15am 6 13 mph 1018.1mb 84f
9:10am 7 13 mph 1018.1mb 84f
9:05am 7 14 mph 1018.1mb 84f
9:00am 7 14 mph 1018mb 84f
8:55am 6 10 mph 1018mb 83f
8:50am 7 10 mph 1017.9mb 83f
8:45am 6 11 mph 1017.9mb 83f
8:40am 7 13 mph 1017.9mb 83f
8:35am 6 11 mph 1017.8mb 83f
8:30am 7 11 mph 1017.7mb 82f
8:25am 6 10 mph 1017.7mb 82f
8:20am 7 13 mph 1017.7mb 82f
8:15am 6 11 mph 1017.7mb 82f
8:10am 7 13 mph 1017.7mb 81f
8:05am 6 10 mph 1017.8mb 81f
8:00am 5 9 mph 1017.8mb 81f
7:55am 6 9 mph 1017.8mb 81f
7:50am 3 8 mph 1017.8mb 81f
7:45am 5 7 mph 1017.9mb 80f
7:40am 5 8 mph 1017.8mb 79f
7:35am 5 8 mph 1017.8mb 79f
7:30am 5 8 mph 1017.8mb 79f
7:25am 3 7 mph 1017.9mb 79f
7:20am 3 7 mph 1017.7mb 78f
7:15am 3 9 mph 1017.7mb 78f
7:10am 3 8 mph 1017.7mb 78f
7:05am 5 8 mph 1017.7mb 77f
7:00am 5 9 mph 1017.7mb 76f
6:55am 3 7 mph 1017.7mb 76f
6:50am 3 8 mph 1017.7mb 76f
6:45am 5 8 mph 1017.6mb 76f
6:40am 3 7 mph 1017.6mb 75f
6:35am 3 8 mph 1017.5mb 75f
6:30am 3 8 mph 1017.5mb 75f
6:25am 3 7 mph 1017.4mb 75f
6:20am 3 6 mph 1017.3mb 75f
6:15am 3 7 mph 1017.3mb 75f
6:10am 5 7 mph 1017.3mb 75f
6:05am 6 8 mph 1017.2mb 75f
6:00am 6 9 mph 1017.1mb 76f
5:55am 6 9 mph 1017.1mb 75f
5:50am 6 9 mph 1017.1mb 75f
5:45am 6 9 mph 1017.1mb 75f
5:40am 6 9 mph 1017.1mb 75f
5:35am 7 10 mph 1017.1mb 75f
5:30am 6 8 mph 1017.1mb 75f
5:25am 6 8 mph 1017.1mb 75f
5:20am 6 9 mph 1017.1mb 75f
5:15am 6 9 mph 1017.3mb 75f
5:10am 6 7 mph 1017.3mb 76f
5:05am 6 7 mph 1017.2mb 75f
5:00am 6 7 mph 1017.2mb 75f
4:55am 6 8 mph 1017.2mb 75f
4:50am 5 7 mph 1017.3mb 75f
4:45am 6 7 mph 1017.2mb 76f
4:40am 5 7 mph 1017.1mb 76f
4:35am 6 7 mph 1017.2mb 76f
4:30am 3 7 mph 1017mb 76f
4:25am 3 6 mph 1017.1mb 76f
4:20am 3 7 mph 1017mb 76f
4:15am 3 7 mph 1016.9mb 76f
4:10am 5 7 mph 1016.9mb 76f
4:05am 5 7 mph 1016.9mb 76f
4:00am 5 7 mph 1016.9mb 76f
3:55am 5 6 mph 1016.8mb 76f
3:50am 5 7 mph 1016.8mb 76f
3:45am 5 7 mph 1016.8mb 76f
3:40am 5 7 mph 1016.7mb 76f
3:35am 5 7 mph 1016.8mb 76f
3:30am 3 8 mph 1016.8mb 76f
3:25am 5 8 mph 1016.8mb 76f
3:20am 6 8 mph 1016.9mb 76f
3:15am 6 9 mph 1016.9mb 76f
3:10am 6 8 mph 1016.9mb 76f
3:05am 5 6 mph 1016.9mb 76f
3:00am 5 6 mph 1017mb 76f
2:55am 5 6 mph 1017.1mb 76f
2:50am 5 6 mph 1017.1mb 76f
2:45am 5 6 mph 1017mb 76f
2:40am 3 6 mph 1017mb 76f
2:35am 3 6 mph 1017.1mb 76f
2:30am 5 6 mph 1017.2mb 76f
2:25am 5 6 mph 1017.2mb 76f
2:20am 5 6 mph 1017.2mb 76f
2:15am 5 6 mph 1017.3mb 76f
2:10am 3 6 mph 1017.3mb 76f
2:05am 3 5 mph 1017.3mb 76f
2:00am 5 6 mph 1017.3mb 76f
1:55am 5 6 mph 1017.3mb 76f
1:50am 3 6 mph 1017.2mb 77f
1:45am 2 7 mph 1017.2mb 77f
1:40am 3 6 mph 1017.2mb 77f
1:35am 3 6 mph 1017.2mb 77f
1:30am 5 6 mph 1017.2mb 77f
1:25am 3 6 mph 1017.3mb 77f
1:20am 5 7 mph 1017.4mb 77f
1:15am 5 6 mph 1017.4mb 77f
1:10am 5 7 mph 1017.4mb 77f
1:05am 5 7 mph 1017.5mb 77f
1:00am 3 6 mph 1017.7mb 77f
12:55am 3 6 mph 1017.7mb 77f
12:50am 3 7 mph 1017.7mb 77f
12:45am 3 7 mph 1017.7mb 77f
12:40am 5 7 mph 1017.7mb 77f
12:35am 3 6 mph 1017.7mb 78f
12:30am 5 7 mph 1017.7mb 78f
12:25am 5 6 mph 1017.8mb 78f
12:20am 5 6 mph 1017.9mb 78f
12:15am 3 6 mph 1018mb 78f
12:10am 5 7 mph 1018mb 78f
12:05am 5 6 mph 1018.1mb 78f
12:00am 5 7 mph 1018.2mb 78f
Sun 05/24 11:55pm 5 7 mph 1018.3mb 78f
11:50pm 5 7 mph 1018.3mb 78f
11:45pm 6 9 mph 1018.3mb 78f
11:40pm 6 8 mph 1018.3mb 78f
11:35pm 5 8 mph 1018.3mb 78f
11:30pm 6 9 mph 1018.3mb 78f
11:25pm 6 9 mph 1018.3mb 78f
11:20pm 6 9 mph 1018.3mb 78f
11:15pm 5 8 mph 1018.3mb 78f
11:10pm 5 8 mph 1018.3mb 78f
11:05pm 5 9 mph 1018.3mb 78f
11:00pm 5 7 mph 1018.3mb 78f
10:55pm 5 7 mph 1018.4mb 78f
10:50pm 3 7 mph 1018.3mb 78f
10:45pm 5 8 mph 1018.3mb 78f
10:40pm 5 8 mph 1018.3mb 78f
10:35pm 5 8 mph 1018.3mb 78f
10:30pm 5 9 mph 1018.3mb 78f
10:25pm 5 8 mph 1018.3mb 78f
10:20pm 5 8 mph 1018.3mb 78f
10:15pm 5 8 mph 1018.3mb 78f
10:10pm 5 9 mph 1018.3mb 78f
10:05pm 3 8 mph 1018.3mb 78f
10:00pm 5 7 mph 1018.3mb 78f
9:55pm 5 7 mph 1018.2mb 78f
9:50pm 3 6 mph 1018.1mb 79f
9:45pm 5 8 mph 1018.1mb 79f
9:40pm 5 7 mph 1018.1mb 79f
9:35pm 5 7 mph 1018mb 79f
9:30pm 5 8 mph 1018.1mb 79f
9:25pm 5 9 mph 1018.1mb 79f
9:20pm 3 7 mph 1018.1mb 79f
9:15pm 5 8 mph 1018.1mb 79f
9:10pm 3 7 mph 1018.1mb 79f
9:05pm 3 7 mph 1018.1mb 79f
9:00pm 3 7 mph 1018mb 79f
8:55pm 5 7 mph 1017.9mb 79f
8:50pm 3 8 mph 1017.8mb 79f
8:45pm 5 7 mph 1017.7mb 79f
8:40pm 5 10 mph 1017.7mb 79f
8:35pm 6 11 mph 1017.7mb 79f
8:30pm 6 10 mph 1017.7mb 80f
8:25pm 7 11 mph 1017.7mb 80f
8:20pm 6 9 mph 1017.6mb 80f
8:15pm 7 13 mph 1017.5mb 80f
8:10pm 6 11 mph 1017.4mb 80f
8:05pm 6 11 mph 1017.4mb 80f
8:00pm 7 13 mph 1017.3mb 80f
7:55pm 6 9 mph 1017.2mb 80f
7:50pm 7 13 mph 1017.2mb 80f
7:45pm 6 13 mph 1017.2mb 80f
7:40pm 6 11 mph 1017.2mb 80f
7:30pm 6 10 mph 1017.1mb 81f
7:25pm 6 10 mph 1017mb 81f
7:20pm 6 11 mph 1016.9mb 81f
7:15pm 6 9 mph 1016.9mb 81f
7:10pm 6 11 mph 1016.8mb 81f
7:05pm 7 13 mph 1016.8mb 82f
7:00pm 6 11 mph 1016.7mb 82f
6:55pm 5 10 mph 1016.7mb 82f
6:50pm 5 9 mph 1016.6mb 82f
6:45pm 9 16 mph 1016.6mb 82f
6:40pm 6 14 mph 1016.6mb 82f
6:35pm 5 8 mph 1016.6mb 83f
6:30pm 2 5 mph 1016.6mb 83f
6:25pm  -  2 mph 1016.6mb 83f
6:20pm  -  2 mph 1016.6mb 83f